This is the latest recevied weather packets stored in our database for station/object HB9CJD-1. If no packets are shown the sender has not sent any weather packets the latest 10 day(s).
| Time | Temp. | Humidity | Pressure | Rain* | Wind** | Luminosity | Snow |
|---|---|---|---|---|---|---|---|
| 1777897424 | 23.33° C | 41% | 1015.1 hPa | - | - | - | - |
| 1777896821 | 22.78° C | 40% | 1015.2 hPa | - | - | - | - |
| 1777896821 | 22.78° C | 40% | 1015.2 hPa | - | - | - | - |
| 1777896218 | 22.22° C | 42% | 1015.2 hPa | - | - | - | - |
| 1777896218 | 22.22° C | 42% | 1015.2 hPa | - | - | - | - |
| 1777895614 | 21.67° C | 41% | 1015.4 hPa | - | - | - | - |
| 1777895614 | 21.67° C | 41% | 1015.4 hPa | - | - | - | - |
| 1777895011 | 21.67° C | 43% | 1015.3 hPa | - | - | - | - |
| 1777895011 | 21.67° C | 43% | 1015.3 hPa | - | - | - | - |
| 1777894408 | 22.22° C | 40% | 1015.3 hPa | - | - | - | - |
| 1777894408 | 22.22° C | 40% | 1015.3 hPa | - | - | - | - |
| 1777893805 | 22.22° C | 41% | 1015.4 hPa | - | - | - | - |
| 1777893805 | 22.22° C | 41% | 1015.4 hPa | - | - | - | - |
| 1777893202 | 22.78° C | 35% | 1015.4 hPa | - | - | - | - |
| 1777893201 | 22.78° C | 35% | 1015.4 hPa | - | - | - | - |
| 1777892598 | 22.22° C | 39% | 1015.5 hPa | - | - | - | - |
| 1777892598 | 22.22° C | 39% | 1015.5 hPa | - | - | - | - |
| 1777891995 | 21.67° C | 42% | 1015.8 hPa | - | - | - | - |
| 1777891995 | 21.67° C | 42% | 1015.8 hPa | - | - | - | - |
| 1777891392 | 21.67° C | 41% | 1015.8 hPa | - | - | - | - |
| 1777891392 | 21.67° C | 41% | 1015.8 hPa | - | - | - | - |
| 1777890789 | 21.67° C | 45% | 1016 hPa | - | - | - | - |
| 1777890788 | 21.67° C | 45% | 1016 hPa | - | - | - | - |
| 1777890185 | 21.67° C | 41% | 1016.1 hPa | - | - | - | - |
| 1777890185 | 21.67° C | 41% | 1016.1 hPa | - | - | - | - |
* Rain since midnight (hover to see other rain measurements)
** Current wind speed in m/s (hover to see current wind gust speed)